Tiempo cada hora Abay (Syrdarinskiy rayon)

Hoy, 26 Octubre, Lunes

Tiempo Temperatura Precipitaciones Viento Presión Humedad
00:00 +9°C° 0 mm 5 mps 756 mmHg 34%
01:00 +8°C° 0 mm 5 mps 755 mmHg 34%
02:00 +8°C° 0 mm 4 mps 755 mmHg 34%
03:00 +8°C° 0 mm 4 mps 755 mmHg 34%
04:00 +8°C° 0 mm 4 mps 754 mmHg 34%
05:00 +7°C° 0 mm 5 mps 754 mmHg 34%
06:00 +7°C° 0 mm 5 mps 754 mmHg 34%
07:00 +7°C° 0 mm 5 mps 753 mmHg 35%
08:00 +10°C° 0 mm 6 mps 753 mmHg 31%
09:00 +12°C° 0 mm 7 mps 752 mmHg 27%
10:00 +16°C° 0 mm 8 mps 752 mmHg 24%
11:00 +17°C° 0 mm 8 mps 751 mmHg 22%
12:00 +20°C° 0 mm 8 mps 751 mmHg 20%
13:00 +21°C° 0 mm 9 mps 750 mmHg 18%
14:00 +21°C° 0 mm 8 mps 750 mmHg 19%
15:00 +20°C° 0 mm 7 mps 749 mmHg 19%
16:00 +20°C° 0 mm 6 mps 749 mmHg 20%
17:00 +17°C° 0 mm 6 mps 749 mmHg 24%
18:00 +15°C° 0 mm 6 mps 749 mmHg 28%
19:00 +14°C° 0 mm 5 mps 749 mmHg 31%
20:00 +12°C° 0 mm 5 mps 749 mmHg 46%
21:00 +10°C° 0 mm 5 mps 749 mmHg 60%
22:00 +10°C° 0 mm 4 mps 749 mmHg 74%
23:00 +10°C° 0 mm 4 mps 749 mmHg 79%

Mañana, 27 Octubre, Martes

Tiempo Temperatura Precipitaciones Viento Presión Humedad
00:00 +9°C° 0 mm 3 mps 749 mmHg 83%
01:00 +8°C° 0 mm 3 mps 749 mmHg 88%
02:00 +8°C° 0 mm 3 mps 749 mmHg 85%
03:00 +7°C° 0 mm 3 mps 749 mmHg 82%
04:00 +5°C° 0 mm 3 mps 749 mmHg 79%
05:00 +5°C° 0 mm 3 mps 749 mmHg 76%
06:00 +5°C° 0 mm 3 mps 749 mmHg 73%
07:00 +5°C° 0 mm 3 mps 749 mmHg 70%
08:00 +7°C° 0 mm 5 mps 749 mmHg 60%
09:00 +9°C° 0 mm 7 mps 749 mmHg 50%
10:00 +11°C° 0 mm 8 mps 749 mmHg 40%
11:00 +11°C° 0 mm 8 mps 749 mmHg 37%
12:00 +11°C° 0 mm 9 mps 749 mmHg 35%
13:00 +10°C° 0 mm 9 mps 750 mmHg 32%
14:00 +9°C° 0 mm 8 mps 750 mmHg 31%
15:00 +8°C° 0 mm 7 mps 751 mmHg 30%
16:00 +7°C° 0 mm 6 mps 751 mmHg 30%
17:00 +5°C° 0 mm 5 mps 752 mmHg 32%
18:00 +4°C° 0 mm 4 mps 752 mmHg 35%
19:00 +1°C° 0 mm 4 mps 753 mmHg 38%
20:00 +2°C° 0 mm 3 mps 753 mmHg 39%
21:00 +1°C° 0 mm 3 mps 753 mmHg 40%
22:00 0°C° 0 mm 3 mps 754 mmHg 42%
23:00 0°C° 0 mm 3 mps 754 mmHg 44%

Pasado mañana, 28 Octubre, Miércoles

Tiempo Temperatura Precipitaciones Viento Presión Humedad
00:00 0°C° 0 mm 3 mps 754 mmHg 46%
01:00 -1°C° 0 mm 3 mps 754 mmHg 49%
02:00 -1°C° 0 mm 3 mps 754 mmHg 52%
03:00 -1°C° 0 mm 3 mps 754 mmHg 55%
04:00 -1°C° 0 mm 3 mps 755 mmHg 59%
05:00 -1°C° 0 mm 3 mps 755 mmHg 61%
06:00 -1°C° 0 mm 3 mps 756 mmHg 63%
07:00 -1°C° 0 mm 3 mps 756 mmHg 65%
08:00 0°C° 0 mm 4 mps 757 mmHg 59%
09:00 +2°C° 0 mm 5 mps 757 mmHg 54%
10:00 +5°C° 0 mm 5 mps 757 mmHg 48%
11:00 +4°C° 0 mm 6 mps 757 mmHg 46%
12:00 +5°C° 0 mm 6 mps 758 mmHg 44%
13:00 +5°C° 0 mm 6 mps 758 mmHg 42%
14:00 +5°C° 0 mm 6 mps 758 mmHg 43%
15:00 +4°C° 0 mm 6 mps 758 mmHg 45%
16:00 +3°C° 0 mm 5 mps 759 mmHg 47%
17:00 +2°C° 0 mm 5 mps 759 mmHg 51%
18:00 0°C° 0 mm 4 mps 760 mmHg 56%
19:00 -1°C° 0 mm 4 mps 760 mmHg 61%
20:00 -2°C° 0 mm 4 mps 760 mmHg 63%
21:00 -3°C° 0 mm 4 mps 761 mmHg 65%
22:00 -3°C° 0 mm 4 mps 761 mmHg 67%
23:00 -4°C° 0 mm 4 mps 761 mmHg 70%

29 Octubre, Jueves

Tiempo Temperatura Precipitaciones Viento Presión Humedad
00:00 -4°C° 0 mm 4 mps 762 mmHg 72%
01:00 -5°C° 0 mm 4 mps 762 mmHg 74%
02:00 -7°C° 0 mm 4 mps 762 mmHg 76%
03:00 -7°C° 0 mm 4 mps 762 mmHg 78%
04:00 -8°C° 0 mm 4 mps 762 mmHg 80%
05:00 -8°C° 0 mm 4 mps 763 mmHg 79%
06:00 -8°C° 0 mm 4 mps 763 mmHg 79%
07:00 -8°C° 0 mm 4 mps 764 mmHg 78%
08:00 -7°C° 0 mm 4 mps 764 mmHg 67%
09:00 -4°C° 0 mm 4 mps 765 mmHg 57%
10:00 -2°C° 0 mm 4 mps 765 mmHg 46%
11:00 -1°C° 0 mm 4 mps 765 mmHg 41%
12:00 0°C° 0 mm 4 mps 765 mmHg 37%
13:00 +1°C° 0 mm 5 mps 765 mmHg 32%
14:00 +1°C° 0 mm 4 mps 765 mmHg 34%
15:00 0°C° 0 mm 4 mps 765 mmHg 36%
16:00 0°C° 0 mm 4 mps 766 mmHg 37%
17:00 -1°C° 0 mm 4 mps 766 mmHg 42%
18:00 -1°C° 0 mm 3 mps 767 mmHg 46%
19:00 -4°C° 0 mm 3 mps 767 mmHg 50%
20:00 -4°C° 0 mm 3 mps 767 mmHg 50%
21:00 -4°C° 0 mm 3 mps 767 mmHg 50%
22:00 -5°C° 0 mm 3 mps 767 mmHg 51%
23:00 -5°C° 0 mm 3 mps 767 mmHg 54%

30 Octubre, Viernes

Tiempo Temperatura Precipitaciones Viento Presión Humedad
00:00 -5°C° 0 mm 3 mps 768 mmHg 57%
01:00 -6°C° 0 mm 3 mps 768 mmHg 60%
02:00 -6°C° 0 mm 3 mps 768 mmHg 61%
03:00 -6°C° 0 mm 3 mps 768 mmHg 63%
04:00 -7°C° 0 mm 4 mps 768 mmHg 65%
05:00 -7°C° 0 mm 4 mps 768 mmHg 66%
06:00 -7°C° 0 mm 4 mps 768 mmHg 67%
07:00 -7°C° 0 mm 4 mps 768 mmHg 67%
08:00 -4°C° 0 mm 4 mps 768 mmHg 58%
09:00 -2°C° 0 mm 5 mps 768 mmHg 49%
10:00 0°C° 0 mm 5 mps 768 mmHg 40%
11:00 +2°C° 0 mm 6 mps 768 mmHg 34%
12:00 +3°C° 0 mm 6 mps 768 mmHg 28%
13:00 +4°C° 0 mm 6 mps 767 mmHg 23%
14:00 +4°C° 0 mm 6 mps 767 mmHg 23%
15:00 +3°C° 0 mm 5 mps 767 mmHg 23%
16:00 +3°C° 0 mm 5 mps 766 mmHg 24%
17:00 +2°C° 0 mm 5 mps 766 mmHg 26%
18:00 0°C° 0 mm 5 mps 766 mmHg 28%
19:00 -1°C° 0 mm 5 mps 766 mmHg 31%
20:00 -1°C° 0 mm 5 mps 766 mmHg 31%
21:00 -1°C° 0 mm 5 mps 766 mmHg 32%
22:00 -2°C° 0 mm 6 mps 765 mmHg 33%
23:00 -3°C° 0 mm 6 mps 765 mmHg 35%

31 Octubre, Sábado

Tiempo Temperatura Precipitaciones Viento Presión Humedad
00:00 -3°C° 0 mm 6 mps 765 mmHg 37%
01:00 -3°C° 0 mm 6 mps 765 mmHg 39%
02:00 -3°C° 0 mm 6 mps 764 mmHg 40%
03:00 -3°C° 0 mm 6 mps 764 mmHg 41%
04:00 -4°C° 0 mm 6 mps 764 mmHg 43%
05:00 -3°C° 0 mm 6 mps 764 mmHg 43%
06:00 -3°C° 0 mm 6 mps 764 mmHg 42%
07:00 -3°C° 0 mm 7 mps 764 mmHg 42%
08:00 -1°C° 0 mm 7 mps 764 mmHg 36%
09:00 +1°C° 0 mm 8 mps 763 mmHg 31%
10:00 +5°C° 0 mm 8 mps 763 mmHg 25%
Mostrar más

Necesitamos Su Consentimiento

Meteoprog y nuestros Proveedores de Servicios pueden almacenar y acceder a sus datos personales como cookies, identificadores de dispositivo u otras tecnologías similares de su dispositivo y procesar dichos datos para personalizar contenido y anuncios, además de ofrecer funciones de redes sociales y analizar el tráfico.

  • Almacenar y/o acceder a información en su dispositivo

    Se puede almacenar o acceder a cookies, identificadores de dispositivo u otra información de su dispositivo para los fines anteriormente indicados.

  • Anuncios y contenido personalizados, medición de anuncios y contenido, percepciones del público, y desarrollo de productos

    Los anuncios y el contenido pueden personalizarse en base a su perfil. Se pueden añadir más datos para personalizar mejor los anuncios y contenidos. Se puede medir el rendimiento de los anuncios y contenidos. Se puede obtener la percepción sobre el público que ha visto los anuncios y contenidos. Dichos datos pueden usarse para desarrollar o mejorar la experiencia del usuario, sistemas y software.

Al hacer clic en ‘Estoy De Acuerdo’ usted permitirá el uso de las cookies, identificadores de dispositivo, balizas web u otras tecnologías similares indicadas. Su configuración puede cambiarse desde el navegador de su dispositivo.

Para ciertos fines, los intereses legítimos pueden ser considerados por encima del consentimiento. Puede leer más sobre ello en nuestra Política de Privacidad y Cookies.